Time,TemperatureF,DewpointF,PressureIn,WindDirection,WindDirectionDegrees,WindSpeedMPH,WindSpeedGustMPH,Humidity,HourlyPrecipIn,Conditions,Clouds,dailyrainin,SoftwareType,DateUTC
2013-03-09 00:01:00,58.1,48.8,17.72,WNW,302,0.0,0.0,71,0.00,,,0.00,VWS V14.01,2013-03-09 05:01:00,
2013-03-09 00:02:00,58.1,49.1,17.72,WNW,302,0.0,0.0,72,0.00,,,0.00,VWS V14.01,2013-03-09 05:02:00,
2013-03-09 00:06:00,58.1,49.1,17.72,WNW,302,0.0,0.0,72,0.00,,,0.00,VWS V14.01,2013-03-09 05:06:00,
2013-03-09 00:11:00,58.1,49.1,17.72,WNW,303,0.0,0.0,72,0.00,,,0.00,VWS V14.01,2013-03-09 05:11:00,
2013-03-09 00:16:00,57.9,49.0,17.72,WNW,302,0.0,0.0,72,0.00,,,0.00,VWS V14.01,2013-03-09 05:16:00,
2013-03-09 00:19:00,57.9,49.0,17.72,WNW,302,0.0,0.0,72,0.00,,,0.00,VWS V14.01,2013-03-09 05:19:00,
2013-03-09 00:25:00,57.7,48.8,17.72,WNW,302,0.0,0.0,72,0.00,,,0.00,VWS V14.01,2013-03-09 05:25:00,
2013-03-09 00:30:00,57.7,48.8,17.72,WNW,302,0.0,0.0,72,0.00,,,0.00,VWS V14.01,2013-03-09 05:30:00,
2013-03-09 00:36:00,57.4,48.4,17.72,WNW,302,0.0,0.0,72,0.00,,,0.00,VWS V14.01,2013-03-09 05:36:00,
2013-03-09 00:41:00,57.4,48.4,17.72,WNW,302,0.0,0.0,72,0.00,,,0.00,VWS V14.01,2013-03-09 05:41:00,
2013-03-09 00:46:00,57.2,48.3,17.72,WNW,302,0.0,0.0,72,0.00,,,0.00,VWS V14.01,2013-03-09 05:46:00,
2013-03-09 00:52:00,57.0,48.5,17.72,WNW,302,0.0,0.0,73,0.00,,,0.00,VWS V14.01,2013-03-09 05:52:00,
2013-03-09 00:57:00,57.0,48.5,17.72,WNW,302,0.0,0.0,73,0.00,,,0.00,VWS V14.01,2013-03-09 05:57:00,
2013-03-09 01:03:00,56.8,47.9,17.72,WNW,302,0.0,0.0,72,0.00,,,0.00,VWS V14.01,2013-03-09 06:03:00,
2013-03-09 01:08:00,56.8,47.9,17.72,WNW,302,0.0,0.0,72,0.00,,,0.00,VWS V14.01,2013-03-09 06:08:00,
2013-03-09 01:14:00,56.8,47.9,17.72,WNW,302,0.0,0.0,72,0.00,,,0.00,VWS V14.01,2013-03-09 06:14:00,
2013-03-09 01:19:00,56.7,47.8,17.72,WNW,302,0.0,0.0,72,0.00,,,0.00,VWS V14.01,2013-03-09 06:19:00,
2013-03-09 01:24:00,56.7,47.8,17.72,WNW,302,0.0,0.0,72,0.00,,,0.00,VWS V14.01,2013-03-09 06:24:00,
2013-03-09 01:29:00,56.5,47.6,17.72,WNW,302,0.0,0.0,72,0.00,,,0.00,VWS V14.01,2013-03-09 06:29:00,
2013-03-09 01:35:00,56.3,47.8,17.72,WNW,302,0.0,0.0,73,0.00,,,0.00,VWS V14.01,2013-03-09 06:35:00,
2013-03-09 01:41:00,56.3,47.8,17.72,WNW,302,0.0,0.0,73,0.00,,,0.00,VWS V14.01,2013-03-09 06:41:00,
2013-03-09 01:46:00,56.3,47.8,17.72,WNW,302,0.0,0.0,73,0.00,,,0.00,VWS V14.01,2013-03-09 06:46:00,
2013-03-09 01:52:00,56.1,47.6,17.72,WNW,302,0.0,0.0,73,0.00,,,0.00,VWS V14.01,2013-03-09 06:52:00,
2013-03-09 01:57:00,55.9,47.4,17.72,WNW,302,0.0,0.0,73,0.00,,,0.00,VWS V14.01,2013-03-09 06:57:00,
2013-03-09 02:03:00,55.9,47.4,17.72,WNW,302,0.0,0.0,73,0.00,,,0.00,VWS V14.01,2013-03-09 07:03:00,
2013-03-09 02:08:00,55.8,47.2,17.72,WNW,302,0.0,0.0,73,0.00,,,0.00,VWS V14.01,2013-03-09 07:08:00,
2013-03-09 02:14:00,55.6,47.1,17.72,WNW,302,0.0,0.0,73,0.00,,,0.00,VWS V14.01,2013-03-09 07:14:00,
2013-03-09 02:20:00,55.4,46.9,17.72,WNW,302,0.0,0.0,73,0.00,,,0.00,VWS V14.01,2013-03-09 07:20:00,
2013-03-09 02:25:00,55.2,47.1,17.72,WNW,302,0.0,0.0,74,0.00,,,0.00,VWS V14.01,2013-03-09 07:25:00,
2013-03-09 02:31:00,55.0,46.9,17.72,WNW,302,0.0,0.0,74,0.00,,,0.00,VWS V14.01,2013-03-09 07:31:00,
2013-03-09 02:36:00,54.9,46.7,17.72,WNW,302,0.0,0.0,74,0.00,,,0.00,VWS V14.01,2013-03-09 07:36:00,
2013-03-09 02:42:00,54.7,46.6,17.72,WNW,302,0.0,0.0,74,0.00,,,0.00,VWS V14.01,2013-03-09 07:42:00,
2013-03-09 02:47:00,54.3,46.2,17.72,WNW,302,0.0,0.0,74,0.00,,,0.00,VWS V14.01,2013-03-09 07:47:00,
2013-03-09 02:52:00,54.3,46.2,17.72,WNW,302,0.0,0.0,74,0.00,,,0.00,VWS V14.01,2013-03-09 07:52:00,
2013-03-09 02:58:00,54.0,46.2,17.72,WNW,302,0.0,0.0,75,0.00,,,0.00,VWS V14.01,2013-03-09 07:58:00,
2013-03-09 03:03:00,54.0,46.2,17.72,WNW,302,0.0,0.0,75,0.00,,,0.00,VWS V14.01,2013-03-09 08:03:00,
2013-03-09 03:09:00,53.8,46.0,17.72,WNW,303,0.0,0.0,75,0.00,,,0.00,VWS V14.01,2013-03-09 08:09:00,
2013-03-09 03:14:00,53.6,45.9,17.72,WNW,302,0.0,0.0,75,0.00,,,0.00,VWS V14.01,2013-03-09 08:14:00,
2013-03-09 03:20:00,53.4,45.7,17.72,WNW,302,0.0,0.0,75,0.00,,,0.00,VWS V14.01,2013-03-09 08:20:00,
2013-03-09 03:25:00,53.2,45.5,17.72,WNW,302,0.0,0.0,75,0.00,,,0.00,VWS V14.01,2013-03-09 08:25:00,
2013-03-09 03:31:00,53.2,45.5,17.72,WNW,302,0.0,0.0,75,0.00,,,0.00,VWS V14.01,2013-03-09 08:31:00,
2013-03-09 03:37:00,53.1,45.4,17.72,WNW,302,0.0,0.0,75,0.00,,,0.00,VWS V14.01,2013-03-09 08:37:00,
2013-03-09 03:42:00,53.1,45.7,17.72,WNW,302,0.0,0.0,76,0.00,,,0.00,VWS V14.01,2013-03-09 08:42:00,
2013-03-09 03:47:00,52.9,45.5,17.72,WNW,302,0.0,0.0,76,0.00,,,0.00,VWS V14.01,2013-03-09 08:47:00,
2013-03-09 03:52:00,52.9,45.9,17.72,WNW,302,0.0,0.0,77,0.00,,,0.00,VWS V14.01,2013-03-09 08:52:00,
2013-03-09 03:58:00,52.7,45.7,17.72,WNW,302,0.0,0.0,77,0.00,,,0.00,VWS V14.01,2013-03-09 08:58:00,
2013-03-09 04:03:00,52.7,46.0,17.72,WNW,302,0.0,0.0,78,0.00,,,0.00,VWS V14.01,2013-03-09 09:03:00,
2013-03-09 04:08:00,52.7,46.0,17.72,WNW,302,0.0,0.0,78,0.00,,,0.00,VWS V14.01,2013-03-09 09:08:00,
2013-03-09 04:13:00,52.5,45.9,17.72,WNW,302,0.0,0.0,78,0.00,,,0.00,VWS V14.01,2013-03-09 09:13:00,
2013-03-09 04:18:00,52.5,45.9,17.72,WNW,302,0.0,0.0,78,0.00,,,0.00,VWS V14.01,2013-03-09 09:18:00,
2013-03-09 04:23:00,52.3,45.7,17.72,WNW,302,0.0,0.0,78,0.00,,,0.00,VWS V14.01,2013-03-09 09:23:00,
2013-03-09 04:28:00,52.2,45.8,17.72,WNW,302,0.0,0.0,79,0.00,,,0.00,VWS V14.01,2013-03-09 09:28:00,
2013-03-09 04:34:00,52.2,45.8,17.72,WNW,302,0.0,0.0,79,0.00,,,0.00,VWS V14.01,2013-03-09 09:34:00,
2013-03-09 04:39:00,52.2,45.8,17.72,WNW,302,0.0,0.0,79,0.00,,,0.00,VWS V14.01,2013-03-09 09:39:00,
2013-03-09 04:45:00,52.0,45.7,17.72,WNW,302,0.0,0.0,79,0.00,,,0.00,VWS V14.01,2013-03-09 09:45:00,
2013-03-09 04:51:00,51.8,45.5,17.72,WNW,302,0.0,0.0,79,0.00,,,0.00,VWS V14.01,2013-03-09 09:51:00,
2013-03-09 04:56:00,51.8,45.5,17.72,WNW,302,0.0,0.0,79,0.00,,,0.00,VWS V14.01,2013-03-09 09:56:00,
2013-03-09 05:02:00,51.8,45.5,17.72,WNW,302,0.0,0.0,79,0.00,,,0.00,VWS V14.01,2013-03-09 10:02:00,
2013-03-09 05:07:00,51.8,45.5,17.72,WNW,302,0.0,0.0,79,0.00,,,0.00,VWS V14.01,2013-03-09 10:07:00,
2013-03-09 05:12:00,51.6,45.7,17.72,WNW,302,0.0,0.0,80,0.00,,,0.00,VWS V14.01,2013-03-09 10:12:00,
2013-03-09 05:17:00,51.6,45.3,17.72,WNW,302,0.0,0.0,79,0.00,,,0.00,VWS V14.01,2013-03-09 10:17:00,
2013-03-09 05:23:00,51.6,45.3,17.72,WNW,302,0.0,0.0,79,0.00,,,0.00,VWS V14.01,2013-03-09 10:23:00,
2013-03-09 05:29:00,51.4,45.2,17.72,WNW,302,0.0,0.0,79,0.00,,,0.00,VWS V14.01,2013-03-09 10:29:00,
2013-03-09 05:34:00,51.4,45.2,17.72,WNW,302,0.0,0.0,79,0.00,,,0.00,VWS V14.01,2013-03-09 10:34:00,
2013-03-09 05:40:00,51.3,45.3,17.72,WNW,302,0.0,0.0,80,0.00,,,0.00,VWS V14.01,2013-03-09 10:40:00,
2013-03-09 05:45:00,51.3,45.3,17.72,WNW,302,0.0,0.0,80,0.00,,,0.00,VWS V14.01,2013-03-09 10:45:00,
2013-03-09 05:51:00,51.3,45.3,17.72,WNW,302,0.0,0.0,80,0.00,,,0.00,VWS V14.01,2013-03-09 10:51:00,
2013-03-09 05:56:00,51.1,45.1,17.72,WNW,302,0.0,0.0,80,0.00,,,0.00,VWS V14.01,2013-03-09 10:56:00,
2013-03-09 06:01:00,51.1,45.1,17.72,WNW,302,0.0,0.0,80,0.00,,,0.00,VWS V14.01,2013-03-09 11:01:00,
2013-03-09 06:07:00,50.9,45.0,17.72,WNW,302,0.0,0.0,80,0.00,,,0.00,VWS V14.01,2013-03-09 11:07:00,
2013-03-09 06:12:00,51.1,45.1,17.72,WNW,302,0.0,0.0,80,0.00,,,0.00,VWS V14.01,2013-03-09 11:12:00,
2013-03-09 06:17:00,51.3,45.3,17.72,WNW,302,0.0,0.0,80,0.00,,,0.00,VWS V14.01,2013-03-09 11:17:00,
2013-03-09 06:22:00,51.3,45.3,17.72,WNW,302,0.0,0.0,80,0.00,,,0.00,VWS V14.01,2013-03-09 11:22:00,
2013-03-09 06:28:00,51.4,45.8,17.72,WNW,302,0.0,0.0,81,0.00,,,0.00,VWS V14.01,2013-03-09 11:28:00,
2013-03-09 06:33:00,51.4,45.8,17.72,North,0,0.0,0.0,81,0.00,,,0.00,VWS V14.01,2013-03-09 11:33:00,
2013-03-09 06:39:00,51.4,45.8,17.72,North,0,0.0,0.0,81,0.00,,,0.00,VWS V14.01,2013-03-09 11:39:00,
2013-03-09 06:44:00,51.6,46.0,17.72,North,0,0.0,0.0,81,0.00,,,0.00,VWS V14.01,2013-03-09 11:44:00,
2013-03-09 06:49:00,51.6,46.3,17.72,North,0,0.0,0.0,82,0.00,,,0.00,VWS V14.01,2013-03-09 11:49:00,
2013-03-09 06:54:00,51.4,46.1,17.72,North,0,0.0,0.0,82,0.00,,,0.00,VWS V14.01,2013-03-09 11:54:00,
2013-03-09 07:00:00,51.4,46.5,17.72,North,0,0.0,0.0,83,0.00,,,0.00,VWS V14.01,2013-03-09 12:00:00,
2013-03-09 07:05:00,51.3,46.3,17.72,North,0,0.0,0.0,83,0.00,,,0.00,VWS V14.01,2013-03-09 12:05:00,
2013-03-09 07:11:00,51.4,46.5,17.72,North,0,0.0,0.0,83,0.00,,,0.00,VWS V14.01,2013-03-09 12:11:00,
2013-03-09 07:16:00,51.6,46.6,17.72,North,0,0.0,0.0,83,0.00,,,0.00,VWS V14.01,2013-03-09 12:16:00,
2013-03-09 07:22:00,51.8,46.5,17.72,NNE,33,0.0,0.0,82,0.00,,,0.00,VWS V14.01,2013-03-09 12:22:00,
2013-03-09 07:27:00,52.3,47.0,17.72,ENE,59,0.0,3.1,82,0.00,,,0.00,VWS V14.01,2013-03-09 12:27:00,
2013-03-09 07:33:00,52.7,47.4,17.72,NE,56,0.0,2.7,82,0.00,,,0.00,VWS V14.01,2013-03-09 12:33:00,
2013-03-09 07:39:00,53.1,47.7,17.72,ENE,59,0.0,0.0,82,0.00,,,0.00,VWS V14.01,2013-03-09 12:39:00,
2013-03-09 07:44:00,53.4,48.1,17.72,NE,50,0.0,0.0,82,0.00,,,0.00,VWS V14.01,2013-03-09 12:44:00,
2013-03-09 07:50:00,54.0,48.6,17.72,NE,49,0.0,0.0,82,0.00,,,0.00,VWS V14.01,2013-03-09 12:50:00,
2013-03-09 07:55:00,54.3,48.6,17.72,ENE,59,0.0,0.0,81,0.00,,,0.00,VWS V14.01,2013-03-09 12:55:00,
2013-03-09 08:00:00,54.9,49.2,17.72,NNE,30,0.0,0.0,81,0.00,,,0.00,VWS V14.01,2013-03-09 13:00:00,
2013-03-09 08:05:00,55.2,49.2,17.72,ENE,58,0.0,0.0,80,0.00,,,0.00,VWS V14.01,2013-03-09 13:05:00,
2013-03-09 08:11:00,55.8,49.4,17.72,ENE,58,0.0,0.0,79,0.00,,,0.00,VWS V14.01,2013-03-09 13:11:00,
2013-03-09 08:16:00,56.1,49.4,17.72,North,11,3.1,3.1,78,0.00,,,0.00,VWS V14.01,2013-03-09 13:16:00,
2013-03-09 08:21:00,56.7,49.9,17.72,NE,43,0.0,0.0,78,0.00,,,0.00,VWS V14.01,2013-03-09 13:21:00,
2013-03-09 08:26:00,57.0,49.9,17.72,NE,49,0.0,0.0,77,0.00,,,0.00,VWS V14.01,2013-03-09 13:26:00,
2013-03-09 08:32:00,57.6,50.1,17.72,NE,41,0.0,0.0,76,0.00,,,0.00,VWS V14.01,2013-03-09 13:32:00,
2013-03-09 08:38:00,58.1,50.2,17.72,ENE,77,0.0,0.0,75,0.00,,,0.00,VWS V14.01,2013-03-09 13:38:00,
2013-03-09 08:43:00,58.6,50.4,17.72,NE,43,0.0,0.0,74,0.00,,,0.00,VWS V14.01,2013-03-09 13:43:00,
2013-03-09 08:49:00,59.4,50.7,17.72,East,95,0.0,4.0,73,0.00,,,0.00,VWS V14.01,2013-03-09 13:49:00,
2013-03-09 08:54:00,59.7,50.7,17.72,SSW,203,0.0,3.6,72,0.00,,,0.00,VWS V14.01,2013-03-09 13:54:00,
2013-03-09 08:59:00,60.3,50.8,17.72,NNE,32,0.0,0.0,71,0.00,,,0.00,VWS V14.01,2013-03-09 13:59:00,
2013-03-09 09:04:00,60.8,51.0,17.72,NE,34,0.0,0.0,70,0.00,,,0.00,VWS V14.01,2013-03-09 14:04:00,
2013-03-09 09:10:00,61.3,51.1,17.72,ENE,71,0.0,0.0,69,0.00,,,0.00,VWS V14.01,2013-03-09 14:10:00,
2013-03-09 09:15:00,62.1,51.4,17.72,ESE,102,0.0,6.3,68,0.00,,,0.00,VWS V14.01,2013-03-09 14:15:00,
2013-03-09 09:21:00,62.8,51.7,17.72,NE,50,0.0,0.0,67,0.00,,,0.00,VWS V14.01,2013-03-09 14:21:00,
2013-03-09 09:26:00,63.5,51.5,17.72,NE,51,0.0,0.0,65,0.00,,,0.00,VWS V14.01,2013-03-09 14:26:00,
2013-03-09 09:32:00,64.0,51.6,17.72,ENE,70,4.9,5.4,64,0.00,,,0.00,VWS V14.01,2013-03-09 14:32:00,
2013-03-09 09:37:00,64.8,51.5,17.72,ENE,60,0.0,3.6,62,0.00,,,0.00,VWS V14.01,2013-03-09 14:37:00,
2013-03-09 09:42:00,65.3,51.5,17.72,ESE,119,5.4,5.4,61,0.00,,,0.00,VWS V14.01,2013-03-09 14:42:00,
2013-03-09 09:48:00,66.0,51.8,17.72,SE,125,5.8,5.8,60,0.00,,,0.00,VWS V14.01,2013-03-09 14:48:00,
2013-03-09 09:53:00,66.6,51.8,17.72,NE,37,2.7,4.9,59,0.00,,,0.00,VWS V14.01,2013-03-09 14:53:00,
2013-03-09 09:58:00,66.9,51.2,17.72,NNE,33,2.7,2.7,57,0.00,,,0.00,VWS V14.01,2013-03-09 14:58:00,
2013-03-09 10:03:00,67.5,51.7,17.72,East,91,2.7,3.6,57,0.00,,,0.00,VWS V14.01,2013-03-09 15:03:00,
2013-03-09 10:09:00,68.0,51.2,17.72,NE,44,3.1,4.0,55,0.00,,,0.00,VWS V14.01,2013-03-09 15:09:00,
2013-03-09 10:14:00,68.5,51.2,17.72,NE,51,0.0,3.6,54,0.00,,,0.00,VWS V14.01,2013-03-09 15:14:00,
2013-03-09 10:20:00,69.3,50.9,17.72,SE,127,3.6,6.3,52,0.00,,,0.00,VWS V14.01,2013-03-09 15:20:00,
2013-03-09 10:26:00,69.6,50.7,17.72,East,88,8.1,8.1,51,0.00,,,0.00,VWS V14.01,2013-03-09 15:26:00,
2013-03-09 10:31:00,70.2,50.1,17.72,NNE,15,0.0,3.6,49,0.00,,,0.00,VWS V14.01,2013-03-09 15:31:00,
2013-03-09 10:37:00,70.5,49.3,17.72,East,80,3.6,5.4,47,0.00,,,0.00,VWS V14.01,2013-03-09 15:37:00,
2013-03-09 10:42:00,71.2,49.4,17.72,East,96,0.0,6.3,46,0.00,,,0.00,VWS V14.01,2013-03-09 15:42:00,
2013-03-09 10:48:00,71.8,49.3,17.72,ENE,71,2.7,5.4,45,0.00,,,0.00,VWS V14.01,2013-03-09 15:48:00,
2013-03-09 10:53:00,72.0,49.5,17.72,NE,36,3.1,5.8,45,0.00,,,0.00,VWS V14.01,2013-03-09 15:53:00,
2013-03-09 10:58:00,72.7,49.5,17.72,East,99,6.3,6.3,44,0.00,,,0.00,VWS V14.01,2013-03-09 15:58:00,
2013-03-09 11:03:00,73.0,49.9,17.72,ENE,58,3.1,4.0,44,0.00,,,0.00,VWS V14.01,2013-03-09 16:03:00,
2013-03-09 11:08:00,72.9,49.1,17.72,NNE,26,0.0,6.3,43,0.00,,,0.00,VWS V14.01,2013-03-09 16:08:00,
2013-03-09 11:13:00,73.6,49.7,17.72,ENE,68,0.0,0.0,43,0.00,,,0.00,VWS V14.01,2013-03-09 16:13:00,
2013-03-09 11:18:00,73.9,49.4,17.72,East,101,3.6,5.8,42,0.00,,,0.00,VWS V14.01,2013-03-09 16:18:00,
2013-03-09 11:23:00,74.1,49.6,17.72,NNE,33,2.7,3.6,42,0.00,,,0.00,VWS V14.01,2013-03-09 16:23:00,
2013-03-09 11:29:00,74.5,49.3,17.72,NE,54,0.0,3.6,41,0.00,,,0.00,VWS V14.01,2013-03-09 16:29:00,
2013-03-09 11:34:00,74.3,49.1,17.72,ENE,61,2.7,4.0,41,0.00,,,0.00,VWS V14.01,2013-03-09 16:34:00,
2013-03-09 11:39:00,74.8,49.6,17.72,NE,47,2.7,4.0,41,0.00,,,0.00,VWS V14.01,2013-03-09 16:39:00,
2013-03-09 11:44:00,75.6,49.6,17.72,ESE,113,0.0,2.7,40,0.00,,,0.00,VWS V14.01,2013-03-09 16:44:00,
2013-03-09 11:50:00,76.3,49.5,17.72,East,81,0.0,3.1,39,0.00,,,0.00,VWS V14.01,2013-03-09 16:50:00,
2013-03-09 11:55:00,76.6,49.8,17.72,South,180,3.1,4.9,39,0.00,,,0.00,VWS V14.01,2013-03-09 16:55:00,
2013-03-09 12:01:00,76.6,49.2,17.72,ENE,71,0.0,0.0,38,0.00,,,0.00,VWS V14.01,2013-03-09 17:01:00,
2013-03-09 12:06:00,76.8,49.3,17.72,ENE,76,0.0,0.0,38,0.00,,,0.00,VWS V14.01,2013-03-09 17:06:00,
2013-03-09 12:12:00,77.2,48.9,17.72,ESE,105,0.0,0.0,37,0.00,,,0.00,VWS V14.01,2013-03-09 17:12:00,
2013-03-09 12:17:00,77.0,48.0,17.72,SE,132,11.0,11.0,36,0.00,,,0.00,VWS V14.01,2013-03-09 17:17:00,
2013-03-09 12:23:00,77.4,48.3,17.72,SE,133,6.3,6.3,36,0.00,,,0.00,VWS V14.01,2013-03-09 17:23:00,
2013-03-09 12:29:00,77.2,48.2,17.72,SE,130,0.0,7.6,36,0.00,,,0.00,VWS V14.01,2013-03-09 17:29:00,
2013-03-09 12:34:00,77.2,48.2,17.72,NNE,29,4.0,4.5,36,0.00,,,0.00,VWS V14.01,2013-03-09 17:34:00,
2013-03-09 12:40:00,77.4,47.6,17.72,NE,35,4.0,4.0,35,0.00,,,0.00,VWS V14.01,2013-03-09 17:40:00,
2013-03-09 12:46:00,77.5,47.8,17.72,East,101,2.2,5.8,35,0.00,,,0.00,VWS V14.01,2013-03-09 17:46:00,
2013-03-09 12:51:00,77.9,48.1,17.72,SE,146,7.2,7.2,35,0.00,,,0.00,VWS V14.01,2013-03-09 17:51:00,
2013-03-09 12:57:00,77.2,46.7,17.72,NE,34,2.7,4.9,34,0.00,,,0.00,VWS V14.01,2013-03-09 17:57:00,
2013-03-09 13:02:00,77.2,47.4,17.72,NE,39,0.0,0.0,35,0.00,,,0.00,VWS V14.01,2013-03-09 18:02:00,
2013-03-09 13:07:00,77.0,46.5,17.72,NE,35,0.0,0.0,34,0.00,,,0.00,VWS V14.01,2013-03-09 18:07:00,
2013-03-09 13:12:00,76.6,46.2,17.72,NE,44,2.2,5.4,34,0.00,,,0.00,VWS V14.01,2013-03-09 18:12:00,
2013-03-09 13:17:00,76.5,46.0,17.72,ENE,58,0.0,3.1,34,0.00,,,0.00,VWS V14.01,2013-03-09 18:17:00,
2013-03-09 13:23:00,76.5,46.0,17.72,NE,50,3.1,3.6,34,0.00,,,0.00,VWS V14.01,2013-03-09 18:23:00,
2013-03-09 13:28:00,76.8,46.3,17.72,ENE,59,0.0,0.0,34,0.00,,,0.00,VWS V14.01,2013-03-09 18:28:00,
2013-03-09 13:33:00,77.2,46.7,17.72,SE,141,7.6,7.6,34,0.00,,,0.00,VWS V14.01,2013-03-09 18:33:00,
2013-03-09 13:39:00,77.7,47.1,17.72,NE,48,2.7,3.6,34,0.00,,,0.00,VWS V14.01,2013-03-09 18:39:00,
2013-03-09 13:44:00,77.7,47.1,17.72,NE,45,2.7,4.0,34,0.00,,,0.00,VWS V14.01,2013-03-09 18:44:00,
2013-03-09 13:50:00,77.7,46.3,17.72,East,96,0.0,5.4,33,0.00,,,0.00,VWS V14.01,2013-03-09 18:50:00,
2013-03-09 13:55:00,78.1,46.7,17.72,ENE,57,2.2,3.6,33,0.00,,,0.00,VWS V14.01,2013-03-09 18:55:00,
2013-03-09 14:00:00,78.6,47.1,17.72,NE,43,0.0,0.0,33,0.00,,,0.00,VWS V14.01,2013-03-09 19:00:00,
2013-03-09 14:05:00,78.4,47.0,17.72,East,79,2.2,4.0,33,0.00,,,0.00,VWS V14.01,2013-03-09 19:05:00,
2013-03-09 14:11:00,78.3,46.8,17.72,ESE,105,3.1,3.1,33,0.00,,,0.00,VWS V14.01,2013-03-09 19:11:00,
2013-03-09 14:17:00,78.8,46.5,17.72,NNE,15,0.0,0.0,32,0.00,,,0.00,VWS V14.01,2013-03-09 19:17:00,
2013-03-09 14:22:00,78.4,46.2,17.72,ENE,68,0.0,0.0,32,0.00,,,0.00,VWS V14.01,2013-03-09 19:22:00,
2013-03-09 14:28:00,77.7,46.3,17.72,North,6,2.2,3.6,33,0.00,,,0.00,VWS V14.01,2013-03-09 19:28:00,
2013-03-09 14:33:00,77.2,45.9,17.72,East,80,2.2,4.0,33,0.00,,,0.00,VWS V14.01,2013-03-09 19:33:00,
2013-03-09 14:38:00,77.2,45.9,17.72,ENE,58,0.0,0.0,33,0.00,,,0.00,VWS V14.01,2013-03-09 19:38:00,
2013-03-09 14:43:00,77.2,45.1,17.72,NNW,339,0.0,0.0,32,0.00,,,0.00,VWS V14.01,2013-03-09 19:43:00,
2013-03-09 14:48:00,77.2,45.9,17.72,ESE,115,5.4,5.8,33,0.00,,,0.00,VWS V14.01,2013-03-09 19:48:00,
2013-03-09 14:54:00,77.2,45.9,17.72,NE,54,0.0,0.0,33,0.00,,,0.00,VWS V14.01,2013-03-09 19:54:00,
2013-03-09 15:00:00,76.8,45.6,17.72,SE,131,0.0,0.0,33,0.00,,,0.00,VWS V14.01,2013-03-09 20:00:00,
2013-03-09 15:05:00,76.8,45.6,17.72,ESE,114,0.0,0.0,33,0.00,,,0.00,VWS V14.01,2013-03-09 20:05:00,
2013-03-09 15:11:00,77.0,45.7,17.72,NE,55,0.0,0.0,33,0.00,,,0.00,VWS V14.01,2013-03-09 20:11:00,
2013-03-09 15:16:00,77.4,46.0,17.72,ESE,118,0.0,0.0,33,0.00,,,0.00,VWS V14.01,2013-03-09 20:16:00,
2013-03-09 15:21:00,77.4,46.0,17.72,NNE,24,0.0,2.2,33,0.00,,,0.00,VWS V14.01,2013-03-09 20:21:00,
2013-03-09 15:26:00,77.2,45.9,17.72,NE,45,0.0,0.0,33,0.00,,,0.00,VWS V14.01,2013-03-09 20:26:00,
2013-03-09 15:31:00,77.2,45.9,17.72,NE,56,0.0,0.0,33,0.00,,,0.00,VWS V14.01,2013-03-09 20:31:00,
2013-03-09 15:37:00,77.0,45.7,17.72,NE,56,0.0,0.0,33,0.00,,,0.00,VWS V14.01,2013-03-09 20:37:00,
2013-03-09 15:42:00,76.8,45.6,17.72,East,82,0.0,2.7,33,0.00,,,0.00,VWS V14.01,2013-03-09 20:42:00,
2013-03-09 15:47:00,76.6,45.4,17.72,ENE,74,0.0,0.0,33,0.00,,,0.00,VWS V14.01,2013-03-09 20:47:00,
2013-03-09 15:52:00,76.5,46.0,17.72,East,85,0.0,0.0,34,0.00,,,0.00,VWS V14.01,2013-03-09 20:52:00,
2013-03-09 15:57:00,76.3,45.9,17.72,ESE,118,0.0,0.0,34,0.00,,,0.00,VWS V14.01,2013-03-09 20:57:00,
2013-03-09 16:03:00,76.3,45.9,17.72,SE,131,0.0,0.0,34,0.00,,,0.00,VWS V14.01,2013-03-09 21:03:00,
2013-03-09 16:08:00,76.1,45.7,17.72,ESE,114,0.0,2.2,34,0.00,,,0.00,VWS V14.01,2013-03-09 21:08:00,
2013-03-09 16:13:00,76.1,45.7,17.72,East,84,0.0,2.2,34,0.00,,,0.00,VWS V14.01,2013-03-09 21:13:00,
2013-03-09 16:18:00,76.6,46.2,17.72,ENE,64,0.0,5.4,34,0.00,,,0.00,VWS V14.01,2013-03-09 21:18:00,
2013-03-09 16:24:00,77.9,47.3,17.72,NNE,24,0.0,4.9,34,0.00,,,0.00,VWS V14.01,2013-03-09 21:24:00,
2013-03-09 16:30:00,77.2,46.7,17.72,SSW,197,3.6,4.9,34,0.00,,,0.00,VWS V14.01,2013-03-09 21:30:00,
2013-03-09 16:35:00,76.6,47.0,17.72,SSE,147,0.0,9.6,35,0.00,,,0.00,VWS V14.01,2013-03-09 21:35:00,
2013-03-09 16:41:00,78.1,48.2,17.72,East,98,4.9,7.2,35,0.00,,,0.00,VWS V14.01,2013-03-09 21:41:00,
2013-03-09 16:46:00,78.4,48.5,17.72,SSE,162,3.6,3.6,35,0.00,,,0.00,VWS V14.01,2013-03-09 21:46:00,
2013-03-09 16:52:00,78.4,47.8,17.72,ENE,62,8.1,8.1,34,0.00,,,0.00,VWS V14.01,2013-03-09 21:52:00,
2013-03-09 16:57:00,77.4,46.8,17.72,NE,48,3.6,3.6,34,0.00,,,0.00,VWS V14.01,2013-03-09 21:57:00,
2013-03-09 17:03:00,77.7,47.1,17.72,East,93,7.6,9.6,34,0.00,,,0.00,VWS V14.01,2013-03-09 22:03:00,
2013-03-09 17:09:00,77.2,46.7,17.72,NNE,22,3.1,4.0,34,0.00,,,0.00,VWS V14.01,2013-03-09 22:09:00,
2013-03-09 17:15:00,76.3,45.9,17.72,ENE,77,5.8,5.8,34,0.00,,,0.00,VWS V14.01,2013-03-09 22:15:00,
2013-03-09 17:20:00,75.6,45.2,17.72,East,100,0.0,4.0,34,0.00,,,0.00,VWS V14.01,2013-03-09 22:20:00,
2013-03-09 17:25:00,74.8,44.6,17.72,ESE,102,0.0,4.9,34,0.00,,,0.00,VWS V14.01,2013-03-09 22:25:00,
2013-03-09 17:30:00,74.3,44.1,17.72,East,99,0.0,6.3,34,0.00,,,0.00,VWS V14.01,2013-03-09 22:30:00,
2013-03-09 17:35:00,73.9,44.6,17.72,SE,125,0.0,0.0,35,0.00,,,0.00,VWS V14.01,2013-03-09 22:35:00,
2013-03-09 17:41:00,73.8,44.4,17.72,NE,56,0.0,0.0,35,0.00,,,0.00,VWS V14.01,2013-03-09 22:41:00,
2013-03-09 17:47:00,73.4,44.1,17.72,ENE,73,0.0,0.0,35,0.00,,,0.00,VWS V14.01,2013-03-09 22:47:00,
2013-03-09 17:52:00,73.0,44.5,17.72,SE,126,0.0,0.0,36,0.00,,,0.00,VWS V14.01,2013-03-09 22:52:00,
2013-03-09 17:58:00,72.7,44.2,17.72,North,4,0.0,0.0,36,0.00,,,0.00,VWS V14.01,2013-03-09 22:58:00,
2013-03-09 18:03:00,72.5,44.8,17.72,NE,56,0.0,0.0,37,0.00,,,0.00,VWS V14.01,2013-03-09 23:03:00,
2013-03-09 18:08:00,72.1,44.5,17.72,ESE,104,0.0,0.0,37,0.00,,,0.00,VWS V14.01,2013-03-09 23:08:00,
2013-03-09 18:13:00,71.8,44.1,17.72,SE,126,0.0,0.0,37,0.00,,,0.00,VWS V14.01,2013-03-09 23:13:00,
2013-03-09 18:18:00,71.6,44.0,17.72,East,88,0.0,0.0,37,0.00,,,0.00,VWS V14.01,2013-03-09 23:18:00,
2013-03-09 18:23:00,71.4,43.8,17.72,ENE,72,0.0,0.0,37,0.00,,,0.00,VWS V14.01,2013-03-09 23:23:00,
2013-03-09 18:28:00,71.1,43.5,17.72,ENE,68,0.0,0.0,37,0.00,,,0.00,VWS V14.01,2013-03-09 23:28:00,
2013-03-09 18:33:00,70.9,43.3,17.72,ENE,68,0.0,0.0,37,0.00,,,0.00,VWS V14.01,2013-03-09 23:33:00,
2013-03-09 18:38:00,70.5,43.7,17.72,ENE,68,0.0,0.0,38,0.00,,,0.00,VWS V14.01,2013-03-09 23:38:00,
2013-03-09 18:44:00,70.2,43.4,17.72,ENE,68,0.0,0.0,38,0.00,,,0.00,VWS V14.01,2013-03-09 23:44:00,
2013-03-09 18:50:00,70.0,43.2,17.72,ENE,68,0.0,0.0,38,0.00,,,0.00,VWS V14.01,2013-03-09 23:50:00,
2013-03-09 18:55:00,69.6,43.6,17.72,ENE,68,0.0,0.0,39,0.00,,,0.00,VWS V14.01,2013-03-09 23:55:00,
2013-03-09 19:00:00,69.3,43.3,17.72,ENE,68,0.0,0.0,39,0.00,,,0.00,VWS V14.01,2013-03-10 00:00:00,
2013-03-09 19:06:00,69.1,43.1,17.72,ENE,68,0.0,0.0,39,0.00,,,0.00,VWS V14.01,2013-03-10 00:06:00,
2013-03-09 19:12:00,68.5,43.3,17.72,ENE,68,0.0,0.0,40,0.00,,,0.00,VWS V14.01,2013-03-10 00:12:00,
2013-03-09 19:18:00,68.0,42.8,17.72,ENE,68,0.0,0.0,40,0.00,,,0.00,VWS V14.01,2013-03-10 00:18:00,
2013-03-09 19:23:00,67.6,43.8,17.72,ENE,68,0.0,0.0,42,0.00,,,0.00,VWS V14.01,2013-03-10 00:23:00,
2013-03-09 19:29:00,67.3,43.4,17.72,NE,49,0.0,3.6,42,0.00,,,0.00,VWS V14.01,2013-03-10 00:29:00,
2013-03-09 19:34:00,67.1,43.9,17.72,NE,49,0.0,0.0,43,0.00,,,0.00,VWS V14.01,2013-03-10 00:34:00,
2013-03-09 19:39:00,67.1,43.9,17.72,ESE,104,0.0,5.4,43,0.00,,,0.00,VWS V14.01,2013-03-10 00:39:00,
2013-03-09 19:44:00,67.1,43.9,17.72,East,81,0.0,0.0,43,0.00,,,0.00,VWS V14.01,2013-03-10 00:44:00,
2013-03-09 19:49:00,67.1,44.5,17.72,NE,40,0.0,3.6,44,0.00,,,0.00,VWS V14.01,2013-03-10 00:49:00,
2013-03-09 19:54:00,66.9,45.5,17.72,ESE,115,4.0,5.8,46,0.00,,,0.00,VWS V14.01,2013-03-10 00:54:00,
2013-03-09 20:00:00,67.1,46.2,17.72,ENE,68,2.2,5.8,47,0.00,,,0.00,VWS V14.01,2013-03-10 01:00:00,
2013-03-09 20:05:00,67.1,46.8,17.72,ENE,71,4.9,4.9,48,0.00,,,0.00,VWS V14.01,2013-03-10 01:05:00,
2013-03-09 20:11:00,66.9,46.6,17.72,East,90,6.7,6.7,48,0.00,,,0.00,VWS V14.01,2013-03-10 01:11:00,
2013-03-09 20:16:00,66.9,47.2,17.72,East,94,2.2,5.8,49,0.00,,,0.00,VWS V14.01,2013-03-10 01:16:00,
2013-03-09 20:22:00,66.7,47.0,17.72,NE,47,3.1,5.4,49,0.00,,,0.00,VWS V14.01,2013-03-10 01:22:00,
2013-03-09 20:27:00,66.6,47.4,17.72,NE,56,3.6,3.6,50,0.00,,,0.00,VWS V14.01,2013-03-10 01:27:00,
2013-03-09 20:32:00,66.6,47.4,17.72,NE,41,2.7,4.9,50,0.00,,,0.00,VWS V14.01,2013-03-10 01:32:00,
2013-03-09 20:37:00,66.6,47.4,17.72,ENE,68,2.7,5.8,50,0.00,,,0.00,VWS V14.01,2013-03-10 01:37:00,
2013-03-09 20:43:00,66.4,47.7,17.72,NE,38,2.2,2.7,51,0.00,,,0.00,VWS V14.01,2013-03-10 01:43:00,
2013-03-09 20:49:00,66.2,47.6,17.72,ENE,64,0.0,3.6,51,0.00,,,0.00,VWS V14.01,2013-03-10 01:49:00,
2013-03-09 20:54:00,66.0,47.9,17.72,ENE,60,0.0,0.0,52,0.00,,,0.00,VWS V14.01,2013-03-10 01:54:00,
2013-03-09 21:00:00,65.8,47.7,17.72,NE,49,0.0,0.0,52,0.00,,,0.00,VWS V14.01,2013-03-10 02:00:00,
2013-03-09 21:05:00,65.7,48.1,17.72,NE,46,0.0,0.0,53,0.00,,,0.00,VWS V14.01,2013-03-10 02:05:00,
2013-03-09 21:11:00,65.7,48.1,17.72,NE,35,0.0,0.0,53,0.00,,,0.00,VWS V14.01,2013-03-10 02:11:00,
2013-03-09 21:16:00,65.7,48.1,17.72,ENE,58,0.0,2.2,53,0.00,,,0.00,VWS V14.01,2013-03-10 02:16:00,
2013-03-09 21:22:00,65.5,48.4,17.72,ESE,106,0.0,2.7,54,0.00,,,0.00,VWS V14.01,2013-03-10 02:22:00,
2013-03-09 21:28:00,65.1,48.6,17.72,ENE,57,0.0,0.0,55,0.00,,,0.00,VWS V14.01,2013-03-10 02:28:00,
2013-03-09 21:33:00,65.1,48.6,17.72,ESE,119,0.0,3.6,55,0.00,,,0.00,VWS V14.01,2013-03-10 02:33:00,
2013-03-09 21:38:00,64.9,48.4,17.72,ENE,73,0.0,0.0,55,0.00,,,0.00,VWS V14.01,2013-03-10 02:38:00,
2013-03-09 21:43:00,64.8,48.7,17.72,ESE,118,0.0,0.0,56,0.00,,,0.00,VWS V14.01,2013-03-10 02:43:00,
2013-03-09 21:48:00,64.8,48.7,17.72,ESE,111,5.8,5.8,56,0.00,,,0.00,VWS V14.01,2013-03-10 02:48:00,
2013-03-09 21:53:00,64.8,49.2,17.72,SE,143,0.0,0.0,57,0.00,,,0.00,VWS V14.01,2013-03-10 02:53:00,
2013-03-09 21:58:00,64.6,49.0,17.72,ESE,112,0.0,4.9,57,0.00,,,0.00,VWS V14.01,2013-03-10 02:58:00,
2013-03-09 22:03:00,64.4,48.8,17.72,NE,34,0.0,0.0,57,0.00,,,0.00,VWS V14.01,2013-03-10 03:03:00,
2013-03-09 22:08:00,64.4,49.3,17.72,ENE,74,0.0,3.6,58,0.00,,,0.00,VWS V14.01,2013-03-10 03:08:00,
2013-03-09 22:14:00,64.2,49.6,17.72,ENE,57,0.0,0.0,59,0.00,,,0.00,VWS V14.01,2013-03-10 03:14:00,
2013-03-09 22:19:00,64.0,49.4,17.72,ENE,69,0.0,0.0,59,0.00,,,0.00,VWS V14.01,2013-03-10 03:19:00,
2013-03-09 22:24:00,63.9,49.7,17.72,East,84,0.0,4.0,60,0.00,,,0.00,VWS V14.01,2013-03-10 03:24:00,
2013-03-09 22:29:00,63.9,49.7,17.72,NNE,20,0.0,0.0,60,0.00,,,0.00,VWS V14.01,2013-03-10 03:29:00,
2013-03-09 22:35:00,63.9,50.2,17.72,East,89,0.0,0.0,61,0.00,,,0.00,VWS V14.01,2013-03-10 03:35:00,
2013-03-09 22:41:00,63.9,50.2,17.72,East,91,3.1,3.1,61,0.00,,,0.00,VWS V14.01,2013-03-10 03:41:00,
2013-03-09 22:46:00,63.7,50.4,17.72,East,85,0.0,3.1,62,0.00,,,0.00,VWS V14.01,2013-03-10 03:46:00,
2013-03-09 22:51:00,63.7,50.4,17.72,East,99,0.0,4.9,62,0.00,,,0.00,VWS V14.01,2013-03-10 03:51:00,
2013-03-09 22:57:00,63.7,50.4,17.72,ESE,114,2.2,3.1,62,0.00,,,0.00,VWS V14.01,2013-03-10 03:57:00,
2013-03-09 23:03:00,63.7,50.9,17.72,East,100,4.0,4.9,63,0.00,,,0.00,VWS V14.01,2013-03-10 04:03:00,
2013-03-09 23:09:00,63.5,50.7,17.72,ENE,63,0.0,0.0,63,0.00,,,0.00,VWS V14.01,2013-03-10 04:09:00,
2013-03-09 23:14:00,63.5,50.7,17.72,East,93,0.0,0.0,63,0.00,,,0.00,VWS V14.01,2013-03-10 04:14:00,
2013-03-09 23:19:00,63.3,50.5,17.72,ESE,117,0.0,0.0,63,0.00,,,0.00,VWS V14.01,2013-03-10 04:19:00,
2013-03-09 23:25:00,63.1,50.8,17.72,NE,52,0.0,0.0,64,0.00,,,0.00,VWS V14.01,2013-03-10 04:25:00,
2013-03-09 23:30:00,63.0,50.6,17.72,NE,45,0.0,0.0,64,0.00,,,0.00,VWS V14.01,2013-03-10 04:30:00,
2013-03-09 23:35:00,63.0,51.0,17.72,NE,35,3.1,5.4,65,0.00,,,0.00,VWS V14.01,2013-03-10 04:35:00,
2013-03-09 23:41:00,62.8,50.8,17.72,SE,128,0.0,0.0,65,0.00,,,0.00,VWS V14.01,2013-03-10 04:41:00,
2013-03-09 23:46:00,63.0,51.0,17.72,ENE,70,0.0,0.0,65,0.00,,,0.00,VWS V14.01,2013-03-10 04:46:00,
2013-03-09 23:52:00,62.8,50.8,17.72,NE,55,2.2,3.6,65,0.00,,,0.00,VWS V14.01,2013-03-10 04:52:00,
2013-03-09 23:57:00,62.6,51.1,17.72,North,2,0.0,0.0,66,0.00,,,0.00,VWS V14.01,2013-03-10 04:57:00,